Wetbulb
47.34 47.09 46.87 46.34 46.22 46.48 46.85 46.72 46.07 46.16 46.45 46.66 46.33 46.14 46.01 45.84 45.43 45.54 45.68 45.87 45.65 45.59 45.61 45.95 45.91 46.16 46.20 46.39 46.25 46.11 46.04 46.22 46.03 45.59 45.11 45.07 45.42 45.58 45.65 45.72 45.66 45.45 45.20 45.04 44.99 44.67 44.53 44.53 44.13 43.78 43.56 43.54 43.54 43.63 43.68 43.98 44.18 43.85 43.34 42.98 42.70 42.70 42.63 42.43 42.15 42.18 42.18 42.03 41.91
47.19 47.20 46.95 45.74 45.63 46.38 46.94 46.73 46.02 45.69 45.80 46.36 46.23 46.04 45.84 45.68 45.51 45.45 45.45 45.51 45.51 45.70 45.65 45.72 45.79 45.82 45.80 45.77 45.76 45.80 45.79 45.76 45.76 45.46 45.18 45.00 45.21 45.20 45.17 44.97 44.88 44.77 44.69 44.81 44.56 44.13 43.86 44.01 43.74 43.36 43.18 43.25 43.21 43.04 43.19 43.85 44.60 44.10 43.18 42.78 42.67 42.67 42.53 42.30 42.39 42.57 42.63 42.45 42.31
47.77 47.77 47.47 46.84 46.59 46.65 46.59 46.45 46.07 45.83 45.97 46.34 46.58 46.38 46.03 45.77 45.48 45.34 45.27 45.46 45.73 45.73 45.58 45.25 45.39 45.54 45.58 45.60 45.86 45.84 45.81 45.66 45.50 45.11 44.85 44.69 44.42 44.31 44.12 43.83 43.83 43.83 43.75 44.01 43.93 43.63 43.38 43.53 43.06 42.56 42.32 42.56 42.54 42.54 42.64 43.13 43.21 42.97 42.58 42.53 42.53 42.39 42.25 42.04 42.43 42.57 42.67 42.53 42.70
48.41 47.93 47.25 46.47 46.27 46.42 46.42 46.35 46.28 46.24 46.34 46.68 46.69 46.49 46.07 45.79 45.51 45.37 45.37 45.55 45.44 45.35 45.07 44.93 45.34 45.76 46.02 45.77 45.72 45.66 45.36 44.70 44.55 44.43 44.13 43.81 43.69 43.54 43.50 43.30 43.16 43.24 43.35 43.39 43.35 43.35 43.33 43.35 42.83 42.40 42.11 42.35 42.25 42.25 42.35 42.61 42.82 42.68 42.56 42.61 42.54 42.39 42.23 42.04 42.29 42.36 42.36 42.39 42.57
48.35 47.83 47.22 46.63 46.55 46.87 47.06 46.89 46.49 46.34 46.34 46.64 46.07 45.69 45.45 45.48 45.48 45.53 45.28 45.09 44.79 44.63 44.76 45.06 45.23 45.73 45.87 45.48 45.16 44.88 44.66 44.20 43.00 43.14 43.58 43.34 43.26 43.29 43.29 43.09 42.98 43.10 43.26 43.50 43.56 43.50 43.50 43.56 42.94 42.64 42.54 42.54 42.25 42.14 42.23 42.65 42.63 42.54 42.39 42.63 42.56 42.42 42.33 42.11 42.18 42.18 42.25 42.04 42.32
47.58 47.47 47.58 47.78 47.62 47.39 47.13 46.83 46.35 46.02 45.82 45.77 45.11 44.76 44.79 44.94 45.00 44.72 44.49 44.17 44.24 44.38 44.62 44.27 44.54 44.47 44.37 44.56 44.29 44.04 43.93 43.85 43.42 43.25 43.33 43.11 43.11 43.06 42.96 42.82 42.97 43.20 43.36 43.34 43.55 43.53 43.46 43.38 42.73 42.60 42.69 42.60 42.53 42.67 42.86 42.99 42.49 42.28 42.05 42.03 42.17 42.27 42.27 42.13 42.11 42.21 42.21 41.97 42.02
47.05 47.04 47.04 47.41 47.11 46.69 46.36 46.27 46.08 45.72 45.27 44.80 44.39 44.27 44.34 44.55 44.41 44.32 44.13 43.92 43.86 43.78 43.71 43.28 43.62 43.71 43.75 43.86 43.58 43.27 43.09 43.03 43.13 43.04 42.83 42.49 42.54 42.47 42.49 42.49 42.61 42.64 42.64 42.71 42.84 42.92 43.04 43.19 42.44 42.01 41.80 41.64 41.93 42.41 42.76 42.83 42.36 42.01 41.69 41.57 41.80 41.99 42.13 42.18 42.28 42.19 42.05 41.89 41.91
46.67 46.42 46.18 45.72 45.59 45.51 45.41 45.21 44.86 44.47 44.26 43.99 44.09 44.10 44.20 44.20 44.00 43.86 43.71 43.29 43.07 43.02 43.09 43.18 43.68 43.75 43.53 43.35 43.21 43.04 42.83 42.68 42.47 42.49 42.56 42.35 42.35 42.35 42.34 42.48 42.48 42.46 42.53 42.72 42.62 42.57 42.54 42.44 42.02 41.76 41.74 41.78 41.74 42.04 42.44 42.96 42.86 42.52 42.00 41.77 41.73 41.87 42.15 42.18 42.38 42.35 42.06 41.84 41.78
45.65 45.65 45.45 45.11 44.88 44.80 44.56 44.23 44.12 43.86 43.78 43.71 43.85 43.90 43.90 43.83 43.70 43.36 43.00 42.63 42.53 42.73 43.00 43.28 43.50 43.54 43.33 42.97 43.00 42.89 42.77 42.50 42.41 42.34 42.25 42.27 42.28 42.21 42.28 42.33 42.33 42.40 42.47 42.68 42.62 42.62 42.56 42.20 41.89 41.76 41.76 41.62 41.48 41.71 42.18 42.70 42.84 42.70 42.37 41.80 41.69 41.75 41.97 42.11 42.36 42.19 41.98 41.80 41.64
44.77 44.71 44.76 44.56 44.52 44.35 44.07 44.02 44.00 43.88 43.69 43.48 43.43 43.48 43.14 42.16 42.51 42.79 42.78 42.63 42.92 43.04 43.21 43.35 43.40 43.35 43.16 43.05 42.82 42.70 42.54 42.50 42.25 42.20 42.04 41.90 41.78 41.66 41.76 41.69 41.83 41.83 41.90 42.18 42.35 42.35 42.11 41.61 41.34 41.40 41.46 41.45 41.48 41.56 41.82 42.05 41.87 41.74 41.51 41.17 41.26 41.66 41.85 41.87 42.00 41.91 41.74 41.60 41.85
44.21 44.27 44.14 43.94 44.17 44.13 43.84 43.98 43.76 43.41 43.21 43.02 42.82 42.93 42.64 42.03 42.34 42.62 42.72 42.86 42.93 42.86 42.88 43.18 43.14 42.83 42.56 42.40 42.28 42.11 42.09 42.03 41.79 41.68 41.50 41.38 41.14 41.16 41.29 41.16 41.16 41.06 41.06 41.14 41.43 41.35 41.19 40.75 40.69 40.79 40.95 40.95 41.04 40.97 41.03 41.22 40.91 40.75 40.61 40.57 40.77 40.81 40.92 41.09 41.21 41.29 41.23 41.35 41.40
44.01 44.00 44.05 44.14 44.18 44.00 43.61 43.36 43.06 42.72 42.60 42.29 42.20 42.26 42.37 42.35 42.51 42.38 42.31 42.48 42.31 42.24 42.41 42.81 42.53 42.18 41.84 41.63 41.77 41.72 41.63 41.67 41.57 41.38 41.15 41.04 41.04 41.04 40.98 40.95 40.88 40.75 40.69 40.74 40.95 40.82 40.50 40.21 40.12 40.05 40.03 40.26 40.34 40.30 40.31 40.38 40.13 39.97 39.91 40.03 40.14 40.06 39.95 40.18 40.55 40.62 40.67 40.87 40.70
43.94 43.85 43.81 44.02 43.98 43.62 43.14 42.57 42.41 42.19 41.97 41.76 41.73 41.73 41.73 41.97 42.03 41.97 41.97 42.03 41.79 41.87 41.97 42.14 42.06 41.86 41.67 41.52 41.64 41.64 41.64 41.58 41.41 41.21 40.99 40.99 40.99 40.82 40.75 40.66 40.64 40.54 40.47 40.61 40.83 40.61 40.20 39.98 39.75 39.48 39.27 39.38 39.57 39.76 39.87 39.91 39.58 39.32 39.18 39.33 39.41 39.33 39.30 39.53 39.83 40.05 40.27 40.35 40.06
43.77 43.66 43.50 43.54 43.33 42.95 42.45 42.02 41.80 41.58 41.41 41.31 41.38 41.45 41.48 41.70 41.67 41.64 41.70 41.83 41.70 41.64 41.70 41.81 41.66 41.63 41.63 41.73 41.73 41.67 41.57 41.54 41.41 41.14 40.92 40.76 40.67 40.70 40.47 40.34 40.43 40.28 40.24 40.42 40.64 40.43 40.04 39.61 39.47 39.28 39.06 39.01 39.16 39.34 39.50 39.54 39.21 38.98 38.83 38.72 38.60 38.68 38.80 39.10 39.41 39.60 39.60 39.60 39.41
43.52 43.14 43.02 42.78 42.52 42.07 41.71 41.34 41.19 41.12 41.05 41.01 41.12 41.24 41.36 41.44 41.52 41.66 41.90 42.18 41.90 41.94 41.90 41.83 41.60 41.60 41.70 41.98 41.97 41.77 41.58 41.45 41.23 40.95 40.71 40.51 40.47 40.38 40.27 40.17 40.13 40.06 39.97 40.03 40.15 40.22 39.92 39.57 39.43 39.19 39.00 38.85 38.82 38.98 39.11 39.05 38.98 38.83 38.64 38.49 38.41 38.34 38.41 38.72 38.99 39.07 39.03 38.87 38.79
42.92 42.68 42.46 42.00 41.63 41.37 41.09 40.95 40.81 40.81 40.81 40.81 41.11 41.29 41.41 41.52 41.83 41.90 42.10 42.28 42.11 42.02 41.94 41.83 41.73 41.77 41.96 41.90 41.90 41.82 41.58 41.30 41.00 40.79 40.40 40.20 40.13 40.04 39.90 39.78 39.71 39.65 39.64 39.57 39.65 39.70 39.75 39.67 39.58 39.36 39.06 38.88 38.69 38.65 38.69 38.63 38.64 38.57 38.57 38.41 38.34 38.34 38.34 38.34 38.53 38.49 38.33 38.28 38.05
42.32 42.08 41.84 41.48 41.07 40.86 40.79 40.75 40.72 40.81 40.92 41.11 41.43 41.54 41.67 41.86 42.02 41.82 41.59 41.70 41.89 41.97 41.90 41.88 41.96 41.96 41.89 41.67 41.67 41.68 41.49 41.17 40.82 40.47 40.19 39.92 39.78 39.62 39.48 39.42 39.37 39.37 39.34 39.22 39.14 39.04 39.16 39.34 39.43 39.40 39.17 38.98 38.72 38.56 38.52 38.49 38.45 38.45 38.45 38.37 38.26 38.10 37.99 37.65 37.76 37.87 37.71 37.54 37.26
41.82 41.58 41.43 41.13 40.88 40.81 40.74 40.78 40.89 41.04 41.16 41.46 41.61 41.79 41.95 41.97 41.97 41.72 41.55 41.54 41.95 42.02 42.00 42.05 42.15 42.17 42.01 41.87 41.77 41.47 41.21 40.88 40.59 40.34 40.03 39.86 39.66 39.43 39.29 39.22 39.15 39.24 39.14 38.92 38.77 38.68 38.61 38.76 38.91 39.02 38.99 38.87 38.64 38.60 38.53 38.37 38.18 38.14 38.10 37.94 37.74 37.74 37.66 37.50 37.47 37.43 37.30 37.17 36.89
41.34 41.19 41.02 40.84 40.81 40.87 40.89 40.82 40.99 41.14 41.41 41.61 41.66 41.82 41.84 41.88 41.79 41.68 41.66 41.84 41.93 42.05 42.12 41.86 41.99 41.99 41.87 41.72 41.66 41.16 40.67 40.68 40.38 40.13 39.87 39.84 39.55 39.40 39.21 39.06 39.06 39.07 38.99 38.76 38.64 38.62 38.49 38.59 38.72 38.68 38.64 38.48 38.40 38.44 38.28 38.12 37.73 37.53 37.40 37.23 37.31 37.39 37.39 37.47 37.36 37.28 37.15 37.06 36.85
41.04 40.94 40.79 40.81 40.94 41.01 41.01 41.06 41.19 41.33 41.46 41.61 41.63 41.68 41.62 41.73 41.73 41.52 41.49 41.53 41.82 42.06 42.10 41.76 41.68 41.64 41.60 41.52 41.29 40.83 40.55 40.38 40.22 39.97 39.72 39.62 39.41 39.17 39.02 38.98 38.91 38.80 38.64 38.63 38.47 38.44 38.41 38.37 38.37 38.41 38.29 38.09 37.89 37.77 37.60 37.39 37.22 37.05 36.91 36.76 36.80 36.85 36.91 36.99 36.80 36.72 36.72 36.75 36.80
40.81 40.86 40.94 41.04 41.04 41.14 41.13 41.29 41.34 41.50 41.46 41.64 41.56 41.45 41.45 41.63 41.55 41.54 41.46 41.54 42.00 42.09 41.93 41.75 41.50 41.23 41.11 40.99 40.63 40.39 40.20 39.97 39.94 39.74 39.47 39.31 39.06 38.97 38.81 38.79 38.57 38.50 38.39 38.33 38.30 38.34 38.26 38.15 38.18 38.17 38.01 37.68 37.31 37.18 36.96 36.74 36.56 36.41 36.28 36.06 36.09 35.99 36.04 35.97 35.93 35.86 35.78 35.85 35.97
40.94 40.99 41.14 41.21 41.19 41.16 41.18 41.29 41.49 41.55 41.49 41.38 41.38 41.39 41.48 41.52 41.43 41.56 41.80 42.04 42.10 41.87 41.72 41.49 41.19 40.97 40.80 40.44 40.17 39.94 39.75 39.53 39.61 39.45 39.18 38.99 38.83 38.87 38.79 38.68 38.49 38.26 38.11 38.11 38.14 38.22 38.17 38.13 38.01 37.88 37.55 37.25 36.99 36.76 36.41 36.02 35.57 35.23 34.98 34.67 34.65 34.62 34.55 34.64 34.75 34.73 34.82 34.88 34.97
41.04 41.14 41.16 41.21 41.11 40.85 40.72 41.09 41.37 41.31 41.26 41.03 41.13 41.15 41.30 41.32 41.54 41.75 41.95 42.10 41.83 41.60 41.43 41.16 40.93 40.75 40.57 40.30 39.92 39.69 39.26 39.14 39.06 38.99 38.95 38.87 38.76 38.64 38.68 38.60 38.34 38.15 37.92 37.80 38.07 38.14 37.98 37.84 37.76 37.55 37.34 36.97 36.61 36.26 35.78 35.00 34.26 33.69 33.33 33.02 33.09 33.12 33.18 33.43 33.56 33.80 33.86 34.12 34.27
40.92 41.05 41.15 41.06 40.99 40.95 41.03 41.24 41.24 41.05 40.82 40.68 40.67 40.83 40.95 41.17 41.42 41.72 41.82 41.72 41.51 41.49 41.30 40.85 40.70 40.50 40.22 39.92 39.65 39.22 38.91 38.52 38.36 38.28 38.52 38.52 38.44 38.48 38.49 38.30 38.11 37.96 37.88 37.98 37.93 37.83 37.54 36.99 37.23 37.15 36.94 36.64 35.99 35.29 34.62 33.80 33.07 32.45 31.95 31.73 31.73 31.89 32.15 32.31 32.71 32.89 33.18 33.43 33.64
41.03 40.96 40.87 40.87 40.96 41.05 41.12 41.12 40.81 40.60 40.49 40.42 40.42 40.55 40.59 40.99 41.36 41.52 41.47 41.45 41.27 41.15 40.99 40.60 40.40 40.12 39.81 39.49 39.26 39.02 38.71 38.39 38.01 37.88 37.91 38.11 38.24 38.21 38.17 37.91 37.80 37.84 37.75 37.43 36.94 36.50 36.23 35.72 36.04 36.09 35.87 35.37 34.68 33.88 33.10 32.45 32.21 31.76 31.35 30.95 30.92 30.83 31.03 31.33 31.76 32.08 32.30 32.55 32.76
41.03 40.89 40.84 40.89 40.98 41.05 40.92 40.75 40.54 40.42 40.26 40.27 40.27 40.27 40.41 40.69 40.85 40.97 40.96 40.67 40.76 40.79 40.51 40.34 40.17 39.68 39.17 38.86 38.70 38.62 38.39 38.19 38.07 37.99 37.83 37.65 37.72 37.74 37.64 37.42 37.41 37.55 37.58 37.13 36.24 35.75 35.54 35.39 35.06 34.39 34.00 34.06 33.19 32.36 31.72 31.33 31.40 31.29 31.11 30.88 30.62 30.45 30.28 30.36 30.86 31.35 31.81 32.08 32.40
40.88 40.83 40.92 41.06 40.96 40.83 40.69 40.54 40.38 40.24 40.11 40.14 40.03 40.20 40.33 40.47 40.33 40.27 40.12 39.96 40.12 40.22 40.28 40.10 40.04 39.31 38.67 38.93 38.84 38.65 38.29 38.05 38.09 37.97 37.73 37.43 37.19 37.05 36.97 36.79 36.92 37.24 37.22 36.66 35.94 35.49 35.23 35.16 34.65 33.99 33.45 33.20 32.50 31.80 31.24 30.81 30.86 30.99 31.05 30.80 30.59 30.46 30.36 30.26 30.60 30.93 31.27 31.74 32.24
40.86 40.97 41.01 41.07 40.80 40.57 40.45 40.36 40.10 39.97 39.91 39.92 40.05 40.19 40.19 40.05 39.79 39.50 39.31 39.14 39.30 39.28 39.33 39.31 39.38 39.12 38.64 38.51 38.44 38.29 38.07 37.94 37.65 37.57 37.33 37.20 36.90 36.69 36.52 36.46 36.84 36.99 36.77 36.31 35.79 35.37 35.06 34.80 34.46 33.89 33.15 32.18 32.01 31.70 31.32 30.72 30.59 30.53 30.60 30.72 30.64 30.71 30.87 30.93 31.13 31.21 31.51 31.73 32.14
41.11 41.15 41.13 40.91 40.52 40.40 40.22 40.05 39.84 39.78 39.87 40.11 40.11 40.01 39.86 39.60 39.21 38.88 38.71 38.49 38.38 38.22 38.10 38.18 38.28 38.29 37.96 37.58 37.61 37.64 37.72 37.53 37.27 37.12 36.92 36.78 36.70 36.56 36.54 36.63 36.75 36.53 36.10 35.69 35.34 35.06 34.64 34.16 33.65 33.22 32.78 32.31 31.73 31.49 31.11 30.63 30.46 30.35 30.44 30.50 30.75 30.86 31.09 31.13 31.31 31.36 31.51 31.67 31.74
41.23 41.24 41.11 40.77 40.41 40.21 40.00 39.85 39.88 39.94 40.09 40.11 39.96 39.60 39.28 38.93 38.59 38.36 38.06 37.84 37.77 37.69 37.65 37.80 37.69 37.47 37.28 37.24 37.27 37.12 36.94 36.73 36.80 36.65 36.59 36.73 36.49 36.36 36.25 36.29 36.59 36.59 36.06 35.27 34.93 34.47 33.95 33.47 32.97 32.56 32.22 31.99 31.57 31.25 30.99 30.62 30.44 30.31 30.30 30.34 30.80 31.03 31.32 31.34 31.42 31.34 31.36 31.27 31.33
41.28 41.13 40.97 40.62 40.31 40.03 39.86 39.87 40.07 40.20 40.24 40.00 39.52 39.10 38.54 38.21 37.92 37.73 37.72 37.61 37.53 37.34 37.34 37.53 37.40 37.28 37.05 36.95 36.69 36.44 36.25 36.22 36.22 36.18 36.09 35.89 35.54 35.69 36.02 36.34 36.53 36.15 35.56 34.74 34.17 33.68 33.27 32.85 32.45 32.13 31.87 31.64 31.32 31.02 30.92 30.66 30.39 30.30 30.27 30.46 30.79 31.19 31.37 31.50 31.50 31.52 31.36 31.40 31.25
41.01 40.80 40.60 40.22 40.04 39.84 39.83 39.94 40.10 40.15 39.99 39.57 38.98 38.49 38.07 37.81 37.65 37.69 37.68 37.53 37.39 37.24 37.09 37.09 36.88 36.73 36.51 36.34 36.08 35.83 35.70 35.72 35.71 35.63 35.58 35.59 35.61 35.67 35.91 35.93 36.05 35.43 34.62 33.90 33.33 32.85 32.55 32.28 32.11 31.90 31.73 31.58 31.09 31.18 31.14 30.84 30.66 30.64 30.73 30.80 31.05 31.31 31.60 31.60 31.59 31.61 31.76 31.60 31.53
40.84 40.53 40.20 39.86 39.72 39.76 39.76 39.88 39.84 39.73 39.41 39.06 38.52 37.99 37.69 37.51 37.51 37.47 37.43 37.25 37.06 36.95 36.84 36.51 36.26 35.93 35.68 35.49 35.31 35.24 35.25 35.25 35.26 35.31 35.22 35.38 35.52 35.55 35.32 34.84 35.02 34.43 33.56 32.98 32.60 32.28 32.13 31.97 31.90 31.81 31.66 31.57 31.35 31.34 31.46 31.43 31.12 31.03 31.08 31.16 31.32 31.70 31.87 31.96 31.86 31.85 31.92 31.92 31.94
40.86 40.41 39.97 39.66 39.45 39.41 39.53 39.57 39.41 39.18 38.75 38.27 38.00 37.73 37.44 37.12 36.90 36.87 36.80 36.66 36.80 36.72 36.61 36.29 35.96 35.71 35.39 35.28 35.00 34.90 34.79 34.80 35.21 35.53 35.71 35.69 35.46 34.97 34.31 33.68 33.67 33.32 32.82 32.28 32.11 31.89 31.94 31.87 31.90 31.83 31.79 31.64 31.47 31.45 31.58 31.58 31.36 31.28 31.34 31.48 31.64 31.90 32.22 32.23 32.31 32.36 32.51 32.57 32.52
40.54 40.18 39.72 39.45 39.30 39.22 39.06 38.99 38.75 38.47 38.04 37.60 37.31 37.20 37.04 36.84 36.59 36.50 36.36 36.22 36.15 36.22 36.17 36.03 35.85 35.60 35.35 35.25 35.15 35.01 34.91 35.15 35.37 35.61 35.69 35.63 35.02 34.02 33.22 32.73 32.76 32.66 32.36 32.03 32.03 31.96 31.94 32.04 31.97 32.00 31.91 31.51 31.55 31.78 31.92 31.75 31.58 31.51 31.65 31.81 31.92 32.22 32.48 32.70 32.90 33.03 33.22 33.37 33.52
40.12 39.92 39.64 39.47 39.14 38.83 38.64 38.33 38.21 37.77 37.28 36.89 36.76 36.64 36.48 36.44 36.36 36.44 36.29 35.90 35.79 35.68 35.57 35.39 35.25 35.08 34.80 34.59 34.84 34.78 34.78 35.10 35.20 35.42 35.41 35.23 34.14 33.14 32.34 32.05 32.20 32.19 32.09 31.95 32.03 31.96 32.06 32.07 32.00 32.05 31.93 31.94 32.02 32.04 32.00 31.83 31.68 31.75 31.93 31.98 32.17 32.58 32.98 33.15 33.40 33.62 33.82 33.95 34.10
39.80 39.61 39.33 38.97 38.56 38.33 38.14 37.90 37.61 37.10 36.64 36.48 36.25 36.25 36.05 36.16 36.18 36.29 36.14 35.64 35.40 35.04 34.76 34.66 34.42 34.18 34.14 34.08 34.22 34.41 34.62 34.85 34.75 34.69 34.57 34.16 33.23 32.21 31.42 31.24 31.71 31.80 31.83 31.93 32.04 32.06 32.15 32.17 32.22 32.23 32.10 32.01 32.18 32.13 32.02 31.85 31.71 31.83 31.99 32.13 32.32 32.90 33.32 33.64 33.94 34.29 34.44 34.54 34.54
39.31 39.16 38.83 38.49 38.14 37.84 37.64 37.50 36.94 36.46 36.15 36.01 36.00 35.96 35.95 35.93 35.79 35.86 35.68 35.01 34.80 34.35 34.04 33.94 33.80 33.79 33.91 34.09 34.15 34.40 34.78 34.88 34.55 34.19 33.74 33.18 32.34 31.47 30.74 30.59 31.33 31.68 31.85 32.03 32.14 32.15 32.34 32.56 32.59 32.52 32.44 32.17 32.39 32.25 31.95 31.64 31.62 31.71 31.87 32.10 32.49 33.15 33.86 34.27 34.57 34.91 35.11 35.18 34.97
38.90 38.67 38.39 37.99 37.77 37.53 37.10 36.78 36.49 36.10 35.93 35.75 35.64 35.67 35.64 35.57 35.47 35.40 35.26 34.86 34.62 34.21 33.76 33.46 33.46 33.64 33.87 33.96 33.85 34.04 34.31 34.51 34.18 33.55 32.91 32.21 31.74 31.21 30.69 30.42 31.02 31.65 32.02 32.21 32.31 32.51 32.73 33.01 33.01 33.03 32.84 32.50 32.69 32.54 31.98 31.79 31.74 31.81 32.03 32.29 32.64 33.22 33.82 34.24 34.74 35.04 35.37 35.73 35.72
38.89 38.60 38.35 37.84 37.58 37.16 36.70 36.22 36.02 35.87 35.84 35.57 35.40 35.27 35.32 35.19 35.04 35.08 35.08 34.76 34.63 34.25 33.83 33.48 33.51 33.63 33.65 33.38 33.44 33.44 33.60 33.63 33.51 33.02 32.24 31.78 31.49 31.21 30.95 30.86 31.28 31.80 32.25 32.61 32.81 33.01 33.23 33.49 33.49 33.40 33.18 32.78 33.01 32.71 32.26 32.01 31.94 32.03 32.17 32.38 32.38 32.47 32.69 33.17 33.71 34.19 34.75 35.14 35.36
38.86 38.49 38.05 37.65 37.25 36.80 36.35 35.88 35.77 35.77 35.70 35.41 35.27 35.14 34.93 34.83 34.83 34.83 34.80 34.49 34.32 33.97 33.72 33.44 33.49 33.58 33.55 33.01 33.01 33.01 32.76 32.45 32.30 32.07 31.94 31.57 31.38 31.36 31.38 31.58 31.75 32.19 32.82 33.25 33.38 33.54 33.67 33.83 33.74 33.61 33.35 32.72 33.07 32.95 32.78 32.41 32.03 31.91 31.72 31.68 31.47 31.38 31.31 31.63 32.46 33.07 33.63 34.04 34.21
MSLP
1013.72 1013.96 1014.28 1014.44 1014.64 1014.76 1014.84 1014.88 1015.08 1015.16 1015.24 1015.28 1015.40 1015.48 1015.60 1015.72 1015.84 1015.88 1015.96 1016.04 1016.08 1016.12 1016.20 1016.24 1016.28 1016.28 1016.32 1016.40 1016.44 1016.44 1016.44 1016.48 1016.48 1016.48 1016.48 1016.48 1016.48 1016.44 1016.40 1016.40 1016.40 1016.36 1016.28 1016.24 1016.20 1016.12 1016.08 1016.00 1015.96 1015.88 1015.80 1015.68 1015.60 1015.56 1015.48 1015.44 1015.40 1015.32 1015.24 1015.12 1015.04 1014.96 1014.84 1014.68 1014.60 1014.52 1014.40 1014.32 1014.24
1013.72 1013.96 1014.24 1014.48 1014.64 1014.72 1014.84 1014.96 1015.12 1015.28 1015.40 1015.44 1015.56 1015.64 1015.72 1015.84 1015.92 1015.96 1016.04 1016.12 1016.16 1016.24 1016.28 1016.28 1016.32 1016.36 1016.36 1016.40 1016.44 1016.48 1016.48 1016.44 1016.44 1016.44 1016.44 1016.40 1016.40 1016.40 1016.36 1016.36 1016.28 1016.24 1016.16 1016.12 1016.08 1016.00 1015.96 1015.92 1015.84 1015.76 1015.68 1015.56 1015.48 1015.40 1015.32 1015.28 1015.28 1015.20 1015.08 1014.96 1014.88 1014.80 1014.68 1014.56 1014.40 1014.32 1014.24 1014.12 1014.04
1013.72 1013.96 1014.28 1014.44 1014.56 1014.68 1014.80 1014.92 1015.12 1015.24 1015.36 1015.44 1015.56 1015.68 1015.80 1015.92 1015.96 1016.04 1016.12 1016.20 1016.28 1016.28 1016.28 1016.32 1016.36 1016.36 1016.36 1016.40 1016.44 1016.48 1016.48 1016.48 1016.44 1016.44 1016.40 1016.40 1016.36 1016.32 1016.28 1016.24 1016.12 1016.08 1016.04 1016.00 1015.92 1015.88 1015.84 1015.76 1015.68 1015.64 1015.52 1015.40 1015.32 1015.24 1015.16 1015.12 1015.08 1014.96 1014.84 1014.72 1014.68 1014.56 1014.48 1014.32 1014.20 1014.12 1014.08 1013.96 1013.88
1013.80 1014.00 1014.20 1014.36 1014.48 1014.60 1014.72 1014.84 1015.00 1015.12 1015.24 1015.32 1015.52 1015.72 1015.84 1015.92 1016.00 1016.12 1016.16 1016.20 1016.28 1016.28 1016.28 1016.28 1016.32 1016.36 1016.40 1016.44 1016.48 1016.48 1016.44 1016.44 1016.44 1016.40 1016.32 1016.28 1016.28 1016.24 1016.16 1016.12 1016.00 1015.96 1015.92 1015.88 1015.80 1015.72 1015.68 1015.64 1015.56 1015.48 1015.36 1015.24 1015.16 1015.12 1015.00 1014.96 1014.88 1014.84 1014.68 1014.56 1014.52 1014.40 1014.28 1014.16 1014.08 1013.96 1013.92 1013.84 1013.72
1013.88 1014.08 1014.24 1014.32 1014.40 1014.56 1014.68 1014.80 1014.92 1015.04 1015.20 1015.40 1015.60 1015.68 1015.84 1015.92 1016.00 1016.12 1016.16 1016.16 1016.20 1016.24 1016.24 1016.24 1016.28 1016.32 1016.40 1016.40 1016.40 1016.40 1016.36 1016.36 1016.36 1016.28 1016.28 1016.20 1016.16 1016.12 1016.12 1016.00 1015.96 1015.88 1015.84 1015.76 1015.72 1015.68 1015.60 1015.56 1015.48 1015.32 1015.24 1015.12 1015.04 1014.92 1014.84 1014.76 1014.72 1014.68 1014.56 1014.44 1014.36 1014.28 1014.20 1014.04 1013.96 1013.84 1013.76 1013.64 1013.56
1013.96 1014.12 1014.28 1014.32 1014.40 1014.52 1014.68 1014.88 1015.04 1015.24 1015.40 1015.60 1015.68 1015.76 1015.84 1015.88 1015.96 1016.08 1016.12 1016.12 1016.12 1016.16 1016.20 1016.24 1016.28 1016.28 1016.32 1016.32 1016.28 1016.28 1016.24 1016.24 1016.20 1016.20 1016.16 1016.12 1016.08 1016.00 1015.96 1015.88 1015.84 1015.76 1015.68 1015.64 1015.60 1015.56 1015.48 1015.40 1015.32 1015.16 1015.04 1014.96 1014.84 1014.76 1014.72 1014.68 1014.60 1014.52 1014.40 1014.32 1014.24 1014.16 1014.08 1013.96 1013.84 1013.72 1013.64 1013.48 1013.40
1013.96 1014.12 1014.28 1014.40 1014.56 1014.68 1014.84 1015.04 1015.24 1015.44 1015.60 1015.68 1015.72 1015.80 1015.84 1015.92 1016.00 1016.04 1016.12 1016.12 1016.12 1016.12 1016.12 1016.16 1016.20 1016.20 1016.20 1016.20 1016.16 1016.16 1016.12 1016.12 1016.12 1016.12 1016.04 1015.96 1015.92 1015.84 1015.80 1015.72 1015.68 1015.56 1015.52 1015.44 1015.40 1015.28 1015.24 1015.20 1015.08 1014.96 1014.84 1014.76 1014.68 1014.56 1014.52 1014.52 1014.44 1014.36 1014.24 1014.12 1014.08 1014.00 1013.92 1013.76 1013.68 1013.60 1013.52 1013.36 1013.24
1013.92 1014.04 1014.28 1014.48 1014.68 1014.88 1015.04 1015.20 1015.36 1015.48 1015.56 1015.64 1015.68 1015.76 1015.84 1015.96 1016.00 1016.04 1016.08 1016.08 1016.08 1016.12 1016.12 1016.12 1016.12 1016.12 1016.12 1016.12 1016.12 1016.08 1016.04 1016.00 1015.96 1015.92 1015.88 1015.84 1015.76 1015.68 1015.60 1015.56 1015.48 1015.40 1015.32 1015.24 1015.20 1015.12 1015.00 1014.96 1014.84 1014.68 1014.56 1014.52 1014.40 1014.32 1014.28 1014.28 1014.24 1014.16 1014.12 1014.00 1013.92 1013.84 1013.80 1013.68 1013.60 1013.52 1013.40 1013.24 1013.12
1013.84 1014.04 1014.28 1014.52 1014.80 1015.00 1015.16 1015.32 1015.40 1015.48 1015.56 1015.64 1015.68 1015.80 1015.84 1015.92 1015.96 1016.00 1016.00 1016.00 1016.00 1016.00 1016.00 1016.04 1016.00 1016.00 1016.00 1016.00 1016.00 1015.96 1015.96 1015.92 1015.84 1015.76 1015.72 1015.64 1015.56 1015.48 1015.40 1015.32 1015.24 1015.16 1015.08 1015.04 1014.96 1014.88 1014.80 1014.72 1014.56 1014.44 1014.36 1014.28 1014.12 1014.08 1014.04 1014.00 1014.00 1013.96 1013.88 1013.80 1013.68 1013.64 1013.60 1013.52 1013.44 1013.36 1013.24 1013.12 1013.04
1013.72 1013.96 1014.24 1014.44 1014.76 1014.96 1015.16 1015.32 1015.40 1015.48 1015.52 1015.56 1015.68 1015.72 1015.76 1015.84 1015.84 1015.88 1015.92 1015.96 1015.96 1015.96 1015.92 1015.92 1015.92 1015.88 1015.88 1015.88 1015.84 1015.84 1015.76 1015.68 1015.64 1015.56 1015.44 1015.36 1015.24 1015.16 1015.12 1015.00 1014.92 1014.84 1014.76 1014.68 1014.64 1014.56 1014.48 1014.40 1014.28 1014.16 1014.12 1014.04 1013.92 1013.84 1013.80 1013.80 1013.76 1013.68 1013.60 1013.56 1013.48 1013.40 1013.32 1013.28 1013.24 1013.12 1013.04 1012.96 1012.88
1013.64 1013.92 1014.20 1014.44 1014.68 1014.88 1015.04 1015.16 1015.28 1015.36 1015.40 1015.52 1015.56 1015.60 1015.64 1015.68 1015.72 1015.76 1015.80 1015.80 1015.80 1015.76 1015.72 1015.72 1015.72 1015.68 1015.68 1015.64 1015.60 1015.56 1015.48 1015.40 1015.36 1015.24 1015.12 1015.00 1014.96 1014.84 1014.76 1014.68 1014.60 1014.52 1014.44 1014.36 1014.36 1014.28 1014.24 1014.16 1014.04 1013.96 1013.88 1013.84 1013.76 1013.68 1013.60 1013.56 1013.52 1013.44 1013.36 1013.28 1013.20 1013.12 1013.04 1012.96 1012.96 1012.92 1012.84 1012.72 1012.68
1013.68 1013.96 1014.28 1014.48 1014.68 1014.84 1015.00 1015.12 1015.20 1015.28 1015.40 1015.40 1015.44 1015.52 1015.56 1015.56 1015.60 1015.64 1015.68 1015.64 1015.56 1015.56 1015.56 1015.56 1015.56 1015.52 1015.44 1015.40 1015.36 1015.28 1015.24 1015.12 1015.04 1014.96 1014.84 1014.76 1014.68 1014.60 1014.52 1014.44 1014.36 1014.28 1014.24 1014.16 1014.16 1014.12 1014.08 1013.96 1013.88 1013.80 1013.68 1013.64 1013.64 1013.56 1013.44 1013.40 1013.32 1013.24 1013.12 1013.08 1013.00 1012.92 1012.80 1012.68 1012.68 1012.64 1012.56 1012.48 1012.40
1013.80 1014.08 1014.32 1014.56 1014.72 1014.88 1015.00 1015.08 1015.20 1015.24 1015.32 1015.40 1015.40 1015.48 1015.56 1015.56 1015.60 1015.60 1015.56 1015.52 1015.44 1015.40 1015.40 1015.40 1015.40 1015.40 1015.32 1015.24 1015.16 1015.12 1015.04 1014.92 1014.84 1014.76 1014.68 1014.60 1014.52 1014.40 1014.36 1014.28 1014.24 1014.16 1014.12 1014.04 1014.08 1014.04 1013.96 1013.84 1013.80 1013.68 1013.56 1013.44 1013.40 1013.40 1013.32 1013.24 1013.20 1013.08 1012.96 1012.88 1012.84 1012.72 1012.60 1012.56 1012.48 1012.40 1012.36 1012.28 1012.16
1013.92 1014.16 1014.40 1014.60 1014.76 1014.92 1015.00 1015.08 1015.16 1015.24 1015.28 1015.36 1015.40 1015.48 1015.56 1015.56 1015.52 1015.44 1015.40 1015.32 1015.28 1015.28 1015.28 1015.28 1015.28 1015.24 1015.20 1015.12 1015.04 1014.96 1014.88 1014.80 1014.72 1014.64 1014.56 1014.48 1014.40 1014.32 1014.24 1014.12 1014.12 1014.04 1013.96 1013.96 1013.92 1013.88 1013.84 1013.68 1013.60 1013.52 1013.40 1013.32 1013.24 1013.16 1013.12 1013.12 1013.00 1012.96 1012.84 1012.72 1012.60 1012.52 1012.44 1012.40 1012.32 1012.28 1012.20 1012.08 1011.96
1014.08 1014.28 1014.48 1014.64 1014.80 1014.92 1015.00 1015.08 1015.16 1015.20 1015.28 1015.36 1015.40 1015.40 1015.40 1015.40 1015.28 1015.24 1015.24 1015.20 1015.24 1015.24 1015.24 1015.24 1015.20 1015.12 1015.12 1015.04 1014.96 1014.88 1014.80 1014.68 1014.60 1014.52 1014.40 1014.32 1014.28 1014.16 1014.08 1014.00 1013.96 1013.84 1013.80 1013.76 1013.72 1013.68 1013.64 1013.52 1013.40 1013.32 1013.24 1013.12 1013.04 1012.96 1012.92 1012.92 1012.84 1012.72 1012.68 1012.56 1012.44 1012.36 1012.28 1012.20 1012.16 1012.12 1012.04 1011.92 1011.84
1014.12 1014.28 1014.48 1014.64 1014.80 1014.88 1014.96 1015.08 1015.12 1015.24 1015.28 1015.32 1015.28 1015.24 1015.20 1015.12 1015.08 1015.08 1015.12 1015.16 1015.20 1015.20 1015.20 1015.16 1015.12 1015.04 1014.96 1014.92 1014.88 1014.80 1014.68 1014.56 1014.52 1014.40 1014.28 1014.16 1014.08 1013.96 1013.92 1013.84 1013.76 1013.68 1013.60 1013.56 1013.52 1013.44 1013.40 1013.32 1013.24 1013.16 1013.12 1013.00 1012.92 1012.84 1012.72 1012.68 1012.60 1012.56 1012.44 1012.36 1012.28 1012.16 1012.08 1012.00 1011.96 1011.92 1011.84 1011.76 1011.68
1014.08 1014.24 1014.40 1014.56 1014.72 1014.84 1014.92 1015.04 1015.08 1015.12 1015.12 1015.08 1015.04 1015.00 1014.96 1014.96 1014.96 1015.00 1015.08 1015.12 1015.12 1015.12 1015.12 1015.04 1015.00 1014.96 1014.88 1014.84 1014.76 1014.68 1014.60 1014.48 1014.36 1014.28 1014.12 1014.04 1013.96 1013.84 1013.76 1013.68 1013.60 1013.56 1013.44 1013.40 1013.28 1013.20 1013.12 1013.08 1013.04 1012.96 1012.92 1012.84 1012.72 1012.68 1012.56 1012.48 1012.40 1012.36 1012.24 1012.12 1012.08 1011.96 1011.92 1011.84 1011.80 1011.72 1011.68 1011.60 1011.52
1014.04 1014.20 1014.36 1014.48 1014.60 1014.72 1014.80 1014.84 1014.88 1014.88 1014.88 1014.84 1014.84 1014.84 1014.84 1014.92 1014.92 1014.96 1014.96 1015.00 1015.00 1015.00 1014.96 1014.92 1014.92 1014.84 1014.80 1014.68 1014.64 1014.56 1014.52 1014.40 1014.24 1014.12 1014.08 1013.96 1013.84 1013.76 1013.68 1013.56 1013.48 1013.40 1013.32 1013.24 1013.12 1013.04 1012.96 1012.84 1012.84 1012.80 1012.72 1012.68 1012.56 1012.48 1012.40 1012.32 1012.24 1012.12 1012.00 1011.96 1011.88 1011.80 1011.76 1011.72 1011.68 1011.64 1011.56 1011.44 1011.40
1013.96 1014.08 1014.24 1014.40 1014.44 1014.52 1014.56 1014.60 1014.64 1014.68 1014.68 1014.72 1014.72 1014.76 1014.80 1014.88 1014.88 1014.88 1014.88 1014.88 1014.88 1014.88 1014.84 1014.80 1014.76 1014.72 1014.68 1014.56 1014.52 1014.44 1014.40 1014.28 1014.12 1014.00 1013.96 1013.84 1013.76 1013.64 1013.56 1013.40 1013.32 1013.24 1013.16 1013.08 1012.96 1012.88 1012.84 1012.76 1012.68 1012.64 1012.56 1012.52 1012.40 1012.28 1012.20 1012.12 1012.00 1011.92 1011.84 1011.80 1011.72 1011.68 1011.64 1011.60 1011.56 1011.56 1011.48 1011.40 1011.32
1013.88 1014.00 1014.12 1014.24 1014.28 1014.36 1014.40 1014.44 1014.52 1014.56 1014.64 1014.68 1014.72 1014.76 1014.80 1014.80 1014.84 1014.84 1014.80 1014.76 1014.76 1014.72 1014.68 1014.68 1014.60 1014.56 1014.48 1014.40 1014.32 1014.28 1014.20 1014.12 1014.00 1013.88 1013.80 1013.68 1013.56 1013.48 1013.40 1013.28 1013.20 1013.12 1013.00 1012.96 1012.84 1012.76 1012.68 1012.60 1012.56 1012.48 1012.40 1012.28 1012.16 1012.08 1011.96 1011.88 1011.84 1011.72 1011.68 1011.68 1011.60 1011.56 1011.56 1011.48 1011.48 1011.44 1011.40 1011.32 1011.24
1013.84 1013.96 1014.04 1014.12 1014.20 1014.28 1014.36 1014.44 1014.56 1014.60 1014.64 1014.68 1014.68 1014.72 1014.72 1014.76 1014.76 1014.72 1014.68 1014.64 1014.64 1014.60 1014.56 1014.48 1014.44 1014.36 1014.28 1014.20 1014.12 1014.08 1013.96 1013.92 1013.84 1013.76 1013.68 1013.56 1013.44 1013.36 1013.24 1013.16 1013.08 1012.96 1012.88 1012.80 1012.68 1012.60 1012.52 1012.40 1012.36 1012.28 1012.16 1012.04 1011.96 1011.84 1011.80 1011.72 1011.68 1011.60 1011.56 1011.56 1011.52 1011.48 1011.44 1011.40 1011.40 1011.36 1011.24 1011.20 1011.12
1013.84 1013.96 1014.04 1014.12 1014.20 1014.28 1014.40 1014.48 1014.56 1014.60 1014.64 1014.68 1014.68 1014.68 1014.68 1014.68 1014.64 1014.60 1014.56 1014.56 1014.48 1014.44 1014.40 1014.28 1014.24 1014.20 1014.12 1014.04 1013.96 1013.92 1013.84 1013.76 1013.68 1013.60 1013.52 1013.40 1013.28 1013.20 1013.12 1013.08 1012.92 1012.84 1012.68 1012.60 1012.48 1012.40 1012.28 1012.16 1012.08 1011.96 1011.92 1011.84 1011.76 1011.68 1011.68 1011.68 1011.64 1011.60 1011.56 1011.52 1011.52 1011.48 1011.44 1011.40 1011.36 1011.28 1011.20 1011.12 1011.00
1013.88 1013.96 1014.04 1014.12 1014.24 1014.36 1014.48 1014.52 1014.56 1014.56 1014.56 1014.56 1014.56 1014.56 1014.52 1014.48 1014.44 1014.40 1014.40 1014.36 1014.32 1014.28 1014.24 1014.16 1014.12 1014.08 1014.00 1013.96 1013.88 1013.80 1013.68 1013.64 1013.52 1013.40 1013.32 1013.24 1013.12 1013.00 1012.96 1012.84 1012.68 1012.56 1012.40 1012.28 1012.16 1012.04 1011.96 1011.84 1011.72 1011.68 1011.68 1011.60 1011.56 1011.56 1011.56 1011.60 1011.64 1011.60 1011.56 1011.56 1011.52 1011.48 1011.40 1011.36 1011.28 1011.20 1011.12 1011.04 1010.92
1013.92 1014.00 1014.12 1014.20 1014.28 1014.40 1014.40 1014.44 1014.44 1014.44 1014.44 1014.40 1014.40 1014.40 1014.36 1014.28 1014.28 1014.24 1014.20 1014.16 1014.12 1014.12 1014.12 1014.08 1014.04 1013.96 1013.88 1013.84 1013.76 1013.64 1013.52 1013.40 1013.24 1013.16 1013.08 1012.96 1012.84 1012.76 1012.64 1012.56 1012.40 1012.28 1012.12 1012.00 1011.92 1011.84 1011.72 1011.68 1011.56 1011.52 1011.52 1011.52 1011.56 1011.56 1011.56 1011.60 1011.64 1011.64 1011.60 1011.56 1011.48 1011.40 1011.28 1011.24 1011.12 1011.04 1010.96 1010.84 1010.68
1013.92 1014.04 1014.12 1014.20 1014.28 1014.32 1014.36 1014.36 1014.36 1014.32 1014.32 1014.32 1014.28 1014.28 1014.20 1014.12 1014.12 1014.08 1014.04 1013.96 1013.96 1013.96 1013.96 1013.92 1013.88 1013.84 1013.72 1013.64 1013.56 1013.44 1013.32 1013.20 1013.04 1012.92 1012.76 1012.68 1012.56 1012.48 1012.40 1012.28 1012.12 1011.96 1011.84 1011.76 1011.68 1011.64 1011.68 1011.64 1011.60 1011.56 1011.56 1011.56 1011.56 1011.60 1011.60 1011.60 1011.64 1011.64 1011.56 1011.48 1011.36 1011.24 1011.12 1010.96 1010.88 1010.80 1010.68 1010.60 1010.48
1013.88 1013.96 1014.08 1014.16 1014.20 1014.24 1014.28 1014.28 1014.28 1014.28 1014.24 1014.24 1014.16 1014.12 1014.00 1013.96 1013.92 1013.88 1013.84 1013.84 1013.84 1013.84 1013.84 1013.80 1013.72 1013.68 1013.56 1013.44 1013.28 1013.16 1013.04 1012.92 1012.80 1012.64 1012.52 1012.36 1012.28 1012.16 1012.08 1011.96 1011.84 1011.72 1011.60 1011.48 1011.48 1011.48 1011.48 1011.56 1011.60 1011.64 1011.68 1011.64 1011.64 1011.64 1011.56 1011.56 1011.52 1011.48 1011.40 1011.32 1011.16 1011.00 1010.84 1010.68 1010.52 1010.40 1010.36 1010.28 1010.16
1013.84 1013.96 1014.00 1014.08 1014.12 1014.16 1014.20 1014.20 1014.24 1014.20 1014.16 1014.12 1014.04 1013.96 1013.88 1013.84 1013.80 1013.76 1013.72 1013.72 1013.68 1013.68 1013.64 1013.60 1013.52 1013.44 1013.36 1013.20 1013.04 1012.88 1012.76 1012.60 1012.48 1012.36 1012.24 1012.12 1011.96 1011.84 1011.76 1011.68 1011.56 1011.48 1011.36 1011.24 1011.24 1011.28 1011.32 1011.40 1011.48 1011.56 1011.64 1011.60 1011.56 1011.52 1011.44 1011.40 1011.28 1011.24 1011.16 1011.04 1010.88 1010.72 1010.56 1010.36 1010.20 1010.04 1009.92 1009.84 1009.76
1013.80 1013.88 1013.96 1014.04 1014.08 1014.12 1014.12 1014.12 1014.16 1014.12 1014.04 1013.96 1013.92 1013.84 1013.80 1013.76 1013.72 1013.68 1013.64 1013.56 1013.52 1013.48 1013.40 1013.32 1013.24 1013.12 1013.00 1012.84 1012.68 1012.52 1012.40 1012.28 1012.16 1012.08 1011.96 1011.84 1011.76 1011.64 1011.52 1011.40 1011.28 1011.20 1011.12 1011.08 1011.08 1011.12 1011.16 1011.24 1011.32 1011.40 1011.48 1011.52 1011.44 1011.40 1011.32 1011.24 1011.08 1010.96 1010.84 1010.68 1010.52 1010.32 1010.16 1010.00 1009.84 1009.68 1009.52 1009.40 1009.32
1013.76 1013.84 1013.92 1013.96 1014.04 1014.08 1014.12 1014.12 1014.08 1014.00 1013.96 1013.88 1013.84 1013.80 1013.76 1013.68 1013.68 1013.60 1013.52 1013.40 1013.32 1013.24 1013.12 1013.00 1012.92 1012.84 1012.68 1012.48 1012.36 1012.24 1012.12 1012.04 1011.96 1011.84 1011.68 1011.60 1011.52 1011.40 1011.24 1011.12 1011.00 1010.88 1010.84 1010.84 1010.88 1010.96 1011.04 1011.12 1011.20 1011.24 1011.28 1011.36 1011.40 1011.28 1011.12 1010.96 1010.84 1010.68 1010.52 1010.32 1010.12 1009.96 1009.80 1009.60 1009.44 1009.28 1009.16 1009.04 1008.92
1013.68 1013.80 1013.84 1013.96 1013.96 1014.00 1014.00 1014.00 1013.96 1013.92 1013.88 1013.84 1013.84 1013.76 1013.68 1013.60 1013.56 1013.44 1013.36 1013.24 1013.12 1013.04 1012.92 1012.84 1012.68 1012.56 1012.44 1012.28 1012.16 1012.04 1011.88 1011.76 1011.68 1011.56 1011.40 1011.32 1011.24 1011.12 1010.96 1010.88 1010.76 1010.68 1010.64 1010.68 1010.80 1010.88 1010.96 1011.00 1011.08 1011.12 1011.12 1011.12 1011.12 1011.08 1010.92 1010.72 1010.56 1010.40 1010.20 1010.00 1009.80 1009.60 1009.44 1009.24 1009.12 1008.96 1008.80 1008.68 1008.56
1013.64 1013.72 1013.80 1013.84 1013.92 1013.96 1013.96 1013.92 1013.88 1013.88 1013.84 1013.84 1013.76 1013.68 1013.56 1013.48 1013.40 1013.28 1013.20 1013.12 1012.96 1012.84 1012.76 1012.68 1012.52 1012.40 1012.24 1012.12 1011.92 1011.80 1011.64 1011.52 1011.40 1011.28 1011.24 1011.12 1011.00 1010.88 1010.80 1010.68 1010.56 1010.56 1010.56 1010.68 1010.76 1010.84 1010.88 1010.92 1010.92 1010.92 1010.88 1010.88 1010.88 1010.76 1010.60 1010.40 1010.24 1010.08 1009.84 1009.64 1009.44 1009.24 1009.12 1008.92 1008.72 1008.56 1008.40 1008.28 1008.16
1013.56 1013.68 1013.72 1013.76 1013.80 1013.84 1013.84 1013.84 1013.84 1013.80 1013.80 1013.72 1013.68 1013.56 1013.48 1013.40 1013.28 1013.20 1013.12 1013.00 1012.88 1012.72 1012.56 1012.40 1012.28 1012.16 1012.00 1011.84 1011.68 1011.56 1011.40 1011.32 1011.24 1011.12 1011.08 1010.96 1010.84 1010.72 1010.64 1010.56 1010.48 1010.52 1010.56 1010.68 1010.76 1010.80 1010.80 1010.76 1010.72 1010.68 1010.64 1010.56 1010.52 1010.40 1010.24 1010.08 1009.88 1009.68 1009.52 1009.28 1009.12 1008.92 1008.72 1008.56 1008.36 1008.16 1007.96 1007.88 1007.76
1013.56 1013.60 1013.64 1013.68 1013.68 1013.72 1013.76 1013.76 1013.72 1013.68 1013.68 1013.64 1013.56 1013.48 1013.40 1013.28 1013.20 1013.12 1013.00 1012.92 1012.76 1012.60 1012.40 1012.24 1012.12 1011.96 1011.76 1011.60 1011.52 1011.36 1011.24 1011.16 1011.08 1011.00 1010.96 1010.88 1010.76 1010.64 1010.56 1010.48 1010.48 1010.52 1010.56 1010.68 1010.68 1010.68 1010.64 1010.56 1010.48 1010.40 1010.28 1010.20 1010.12 1010.00 1009.84 1009.64 1009.48 1009.28 1009.08 1008.84 1008.68 1008.52 1008.32 1008.12 1007.96 1007.76 1007.60 1007.44 1007.32
1013.56 1013.56 1013.60 1013.60 1013.64 1013.64 1013.68 1013.68 1013.64 1013.60 1013.56 1013.48 1013.44 1013.40 1013.32 1013.24 1013.12 1012.96 1012.84 1012.72 1012.60 1012.40 1012.24 1012.08 1011.96 1011.80 1011.64 1011.48 1011.36 1011.24 1011.12 1011.04 1010.96 1010.88 1010.84 1010.76 1010.64 1010.56 1010.56 1010.56 1010.56 1010.56 1010.56 1010.56 1010.56 1010.44 1010.36 1010.24 1010.12 1010.04 1009.92 1009.84 1009.72 1009.56 1009.40 1009.20 1008.96 1008.80 1008.60 1008.36 1008.20 1008.04 1007.84 1007.68 1007.48 1007.32 1007.16 1007.00 1006.84
1013.44 1013.48 1013.56 1013.56 1013.60 1013.60 1013.56 1013.56 1013.52 1013.44 1013.40 1013.36 1013.32 1013.28 1013.24 1013.12 1012.96 1012.84 1012.64 1012.52 1012.36 1012.20 1012.04 1011.92 1011.80 1011.64 1011.48 1011.36 1011.24 1011.12 1011.00 1010.92 1010.84 1010.80 1010.72 1010.68 1010.64 1010.60 1010.56 1010.56 1010.48 1010.44 1010.40 1010.40 1010.28 1010.16 1010.08 1009.96 1009.84 1009.68 1009.56 1009.48 1009.32 1009.16 1008.96 1008.76 1008.56 1008.32 1008.12 1007.92 1007.68 1007.52 1007.36 1007.16 1006.96 1006.80 1006.64 1006.48 1006.32
1013.36 1013.40 1013.52 1013.56 1013.56 1013.52 1013.48 1013.40 1013.40 1013.36 1013.32 1013.24 1013.24 1013.16 1013.08 1012.96 1012.80 1012.64 1012.48 1012.36 1012.20 1012.04 1011.88 1011.76 1011.64 1011.48 1011.32 1011.16 1011.12 1011.00 1010.88 1010.80 1010.68 1010.64 1010.60 1010.64 1010.64 1010.60 1010.56 1010.40 1010.32 1010.24 1010.20 1010.12 1009.96 1009.84 1009.72 1009.60 1009.52 1009.36 1009.24 1009.12 1008.96 1008.76 1008.56 1008.40 1008.12 1007.88 1007.68 1007.48 1007.24 1007.00 1006.84 1006.64 1006.44 1006.28 1006.12 1005.96 1005.84
1013.28 1013.36 1013.40 1013.40 1013.40 1013.36 1013.36 1013.32 1013.28 1013.24 1013.24 1013.16 1013.12 1013.00 1012.88 1012.76 1012.60 1012.44 1012.32 1012.24 1012.04 1011.88 1011.72 1011.60 1011.48 1011.32 1011.16 1011.04 1010.96 1010.84 1010.72 1010.68 1010.60 1010.56 1010.56 1010.60 1010.64 1010.60 1010.48 1010.32 1010.12 1010.00 1009.92 1009.84 1009.68 1009.56 1009.44 1009.28 1009.12 1009.00 1008.88 1008.76 1008.56 1008.40 1008.16 1007.96 1007.72 1007.52 1007.28 1007.04 1006.80 1006.56 1006.32 1006.12 1005.96 1005.80 1005.60 1005.44 1005.32
1013.24 1013.24 1013.28 1013.24 1013.24 1013.24 1013.24 1013.24 1013.24 1013.16 1013.12 1013.00 1012.92 1012.84 1012.68 1012.56 1012.40 1012.28 1012.20 1012.12 1011.96 1011.80 1011.60 1011.44 1011.28 1011.12 1011.00 1010.92 1010.80 1010.68 1010.64 1010.64 1010.60 1010.56 1010.56 1010.56 1010.60 1010.56 1010.40 1010.20 1009.96 1009.76 1009.64 1009.52 1009.40 1009.24 1009.08 1008.92 1008.72 1008.64 1008.56 1008.40 1008.20 1007.96 1007.80 1007.60 1007.40 1007.16 1006.88 1006.60 1006.32 1006.08 1005.84 1005.68 1005.52 1005.32 1005.12 1004.96 1004.88
1013.16 1013.16 1013.16 1013.12 1013.12 1013.12 1013.12 1013.12 1013.12 1013.08 1013.00 1012.88 1012.80 1012.68 1012.56 1012.48 1012.32 1012.16 1012.12 1012.04 1011.92 1011.72 1011.52 1011.28 1011.12 1010.96 1010.88 1010.84 1010.68 1010.60 1010.56 1010.56 1010.56 1010.56 1010.56 1010.56 1010.52 1010.44 1010.28 1010.04 1009.76 1009.52 1009.32 1009.20 1009.08 1008.88 1008.68 1008.52 1008.36 1008.24 1008.12 1008.04 1007.84 1007.68 1007.52 1007.28 1007.04 1006.80 1006.56 1006.28 1006.00 1005.72 1005.52 1005.36 1005.20 1005.00 1004.80 1004.60 1004.52
1013.12 1013.12 1013.12 1013.12 1013.08 1013.08 1013.08 1013.00 1012.96 1012.92 1012.88 1012.80 1012.68 1012.56 1012.44 1012.32 1012.24 1012.12 1012.00 1011.92 1011.76 1011.56 1011.40 1011.20 1011.00 1010.84 1010.80 1010.68 1010.60 1010.52 1010.44 1010.44 1010.48 1010.56 1010.56 1010.48 1010.40 1010.24 1010.04 1009.84 1009.56 1009.24 1009.04 1008.84 1008.68 1008.48 1008.28 1008.12 1007.96 1007.88 1007.80 1007.72 1007.56 1007.40 1007.24 1007.04 1006.72 1006.48 1006.24 1005.96 1005.80 1005.56 1005.32 1005.12 1004.96 1004.80 1004.56 1004.32 1004.20
1013.12 1013.12 1013.12 1013.08 1013.04 1013.00 1012.96 1012.92 1012.84 1012.84 1012.76 1012.68 1012.56 1012.48 1012.36 1012.24 1012.12 1012.00 1011.88 1011.72 1011.56 1011.40 1011.24 1011.12 1010.96 1010.80 1010.68 1010.64 1010.56 1010.48 1010.40 1010.40 1010.40 1010.40 1010.40 1010.32 1010.12 1009.96 1009.72 1009.52 1009.24 1008.96 1008.68 1008.44 1008.24 1008.04 1007.88 1007.76 1007.68 1007.56 1007.52 1007.44 1007.32 1007.16 1007.00 1006.80 1006.52 1006.24 1005.96 1005.76 1005.60 1005.40 1005.20 1004.96 1004.72 1004.56 1004.32 1004.12 1003.92
Wind_Speed
6 5 4 4 3 3 3 3 2 1 1 1 2 2 2 2 2 2 2 3 3 3 4 4 5 6 7 9 10 10 10 11 12 12 13 13 14 14 15 15 14 15 15 15 15 14 14 13 12 11 9 9 10 11 11 10 11 12 12 13 12 13 14 16 16 17 18 19 16
7 6 5 4 4 3 3 3 2 2 2 2 2 2 2 2 2 3 3 4 4 4 5 5 6 7 8 10 10 10 10 11 12 13 13 14 15 15 15 15 15 15 15 15 15 13 12 13 12 11 9 9 10 11 11 10 10 11 13 15 13 12 12 14 14 16 17 17 16
7 7 6 6 5 5 4 4 4 4 4 4 3 2 1 2 2 3 3 4 5 5 5 5 6 7 9 10 9 9 10 11 12 13 13 13 14 15 15 15 16 16 15 14 14 13 12 13 11 10 9 9 10 11 11 11 12 12 13 14 12 11 10 11 12 13 13 12 14
7 7 7 7 8 7 6 5 5 5 5 3 2 2 1 2 2 3 4 5 5 6 6 6 6 6 7 8 9 10 10 11 13 13 14 14 14 15 16 16 16 16 15 15 15 14 14 14 11 10 10 11 12 12 11 10 12 12 11 11 11 11 11 10 11 11 11 11 13
7 7 7 7 8 7 6 4 4 3 2 1 0 1 2 2 3 3 4 5 5 6 6 7 7 6 6 8 10 11 12 13 13 13 13 14 14 15 15 16 16 15 15 14 14 15 15 15 11 10 10 11 11 11 11 12 13 12 11 10 10 10 10 11 10 10 10 11 11
8 7 6 5 6 5 4 3 2 1 1 1 1 2 3 3 4 5 5 6 6 8 9 9 8 7 8 10 11 12 12 12 12 12 13 14 14 14 15 16 16 15 14 14 15 15 15 14 11 10 10 10 11 12 13 14 14 13 12 11 10 10 10 11 11 11 11 12 13
9 8 7 5 5 4 3 3 2 2 1 1 2 4 5 5 6 7 7 7 8 8 8 8 8 8 9 10 11 12 12 12 12 13 14 14 14 15 15 15 16 16 16 16 16 15 15 13 11 10 10 10 10 11 13 14 13 13 13 12 11 11 11 13 11 11 12 15 17
9 8 8 7 5 4 4 3 2 1 1 2 4 5 7 7 8 8 9 8 8 8 8 7 9 10 11 11 11 12 12 13 13 14 14 14 15 16 16 16 16 16 16 16 16 15 15 13 11 10 10 10 10 11 13 15 15 14 14 14 13 12 11 12 11 12 14 17 18
8 8 7 7 6 4 3 2 1 2 3 4 5 6 7 8 8 9 8 8 8 8 8 8 9 10 12 12 12 12 12 13 13 14 14 14 15 16 16 16 16 16 16 15 16 16 16 13 11 11 11 10 10 11 13 15 16 16 16 15 14 14 14 13 14 15 16 17 18
8 7 6 6 5 3 2 1 3 4 5 5 6 7 7 7 8 8 8 7 7 8 8 9 10 11 12 12 12 12 12 12 13 14 15 15 15 16 16 15 16 16 16 15 15 15 15 13 12 12 12 12 14 15 16 17 18 18 17 14 14 16 17 17 17 18 18 17 18
7 5 4 3 2 2 3 3 4 4 5 6 6 7 7 7 8 8 8 8 9 10 10 10 11 11 12 12 12 13 13 13 13 14 15 16 16 16 17 16 16 17 17 16 15 14 13 12 13 15 16 15 16 17 17 18 19 19 19 16 17 19 20 20 19 19 19 18 20
5 3 2 2 3 3 4 4 5 5 5 6 7 7 8 8 9 9 10 10 11 11 11 11 12 12 12 12 12 13 13 14 14 15 15 16 17 17 17 17 18 18 18 17 16 14 13 13 15 17 18 19 16 15 16 19 19 20 20 20 20 20 21 21 21 19 18 18 20
3 1 1 2 3 4 4 5 5 5 6 6 7 7 8 8 10 10 11 12 11 11 10 11 12 12 12 12 12 13 13 14 15 15 15 16 17 17 18 18 18 18 18 17 15 14 14 15 17 19 20 20 17 16 17 19 20 20 20 21 21 21 21 22 22 21 20 21 21
2 0 2 3 4 4 4 5 5 5 6 7 7 8 8 9 10 10 10 10 10 10 10 11 11 11 11 13 13 14 14 15 15 16 17 17 17 17 18 17 18 18 17 16 15 16 17 17 18 19 20 21 20 19 19 20 20 20 21 21 22 22 22 22 22 22 22 22 22
1 1 2 3 4 4 4 5 5 5 6 7 8 8 9 9 9 9 9 9 10 10 10 10 10 11 12 13 14 15 15 16 16 17 17 18 18 18 18 18 18 18 17 16 16 17 18 19 19 20 20 21 21 21 21 20 20 20 20 21 22 22 22 22 22 22 22 22 22
1 2 3 3 4 5 5 5 5 5 6 8 8 9 9 8 8 8 8 9 9 9 10 11 11 11 12 13 14 15 15 16 16 17 17 17 18 18 18 18 18 18 18 18 18 17 18 18 18 19 20 20 21 21 21 21 21 21 21 22 22 22 22 22 22 22 22 22 23
2 3 4 4 5 6 6 6 6 7 7 8 9 9 8 8 7 8 8 9 9 9 10 12 12 12 12 13 13 14 14 15 15 16 16 17 18 18 18 18 19 19 19 19 19 19 19 19 18 18 19 20 20 21 21 21 21 21 22 22 22 22 22 22 22 22 22 22 23
4 4 5 5 6 7 8 8 8 8 9 9 9 8 8 8 8 9 9 10 10 11 12 13 13 13 13 14 13 13 13 14 15 16 16 17 18 18 19 19 19 19 19 19 19 20 20 20 19 19 19 19 19 20 20 21 21 21 21 22 22 22 22 22 22 21 21 21 22
4 5 5 6 7 8 8 8 8 8 8 8 8 9 9 9 10 10 10 11 11 12 13 14 13 13 14 15 14 14 13 14 16 17 18 18 18 19 19 19 19 19 19 19 19 20 20 20 20 19 19 19 19 19 20 20 20 20 20 21 21 21 21 21 21 21 21 21 21
5 5 6 7 7 8 8 8 8 8 8 8 9 10 10 11 11 11 12 12 12 13 13 14 14 14 14 15 15 15 15 14 15 17 18 18 18 19 19 19 19 19 19 19 19 19 19 20 19 19 20 20 20 20 20 20 20 20 20 19 19 19 20 20 20 20 20 20 21
5 6 6 7 7 7 7 7 7 8 8 9 10 10 11 11 11 12 13 13 13 13 14 14 15 15 15 16 16 16 15 14 15 16 17 17 18 19 19 19 19 19 18 18 18 19 19 19 19 19 19 19 19 19 19 18 18 18 18 17 17 17 18 18 19 19 19 20 20
6 6 6 6 6 6 6 7 7 8 9 9 10 10 11 11 12 12 13 13 13 14 14 14 15 15 15 16 16 16 16 14 15 16 16 17 17 18 18 17 18 19 19 19 19 19 19 19 19 19 18 18 18 18 17 17 16 16 16 17 17 18 18 18 19 19 19 20 20
6 6 6 5 6 6 7 7 8 9 9 10 10 11 11 11 12 12 13 13 13 13 14 14 14 15 15 16 16 17 17 16 17 17 17 17 18 18 18 17 18 18 18 17 17 17 18 17 17 17 17 16 16 16 16 15 15 15 15 17 17 18 18 18 18 19 19 19 20
6 6 5 5 6 7 7 8 9 9 10 10 11 11 11 12 12 12 12 13 13 13 13 12 13 14 15 16 17 17 18 18 18 18 18 18 18 18 18 17 17 17 16 15 15 15 15 14 14 14 14 14 14 14 14 14 14 15 16 17 17 18 18 18 18 19 19 19 19
6 6 5 6 6 7 8 8 9 9 10 10 11 11 12 12 12 12 12 12 12 13 13 14 14 14 15 15 16 17 17 18 18 19 19 18 18 18 17 16 15 14 14 13 15 16 15 12 11 11 12 12 13 13 14 14 15 15 16 16 17 17 18 18 19 19 19 20 19
6 6 6 6 7 8 8 9 9 10 10 11 11 12 12 12 12 12 12 12 13 13 13 14 14 14 14 15 16 16 17 16 17 17 18 18 18 18 17 15 13 13 12 14 15 15 14 12 11 11 11 11 12 13 13 14 15 15 16 17 17 17 17 18 19 19 19 19 19
6 6 6 7 7 8 8 9 9 10 11 11 12 12 13 13 12 12 13 13 13 13 13 13 13 13 13 14 15 16 16 15 16 16 17 17 18 18 17 16 14 13 13 14 15 14 13 12 13 13 13 13 13 13 13 13 14 15 16 16 17 17 18 19 19 20 19 19 20
6 6 6 7 7 8 8 9 10 10 11 12 12 12 13 13 14 14 14 14 14 14 13 12 12 11 11 11 13 15 16 16 16 16 16 17 18 18 18 16 14 14 14 16 15 14 14 14 15 16 16 15 13 13 13 14 15 15 15 15 16 17 18 18 18 18 18 19 19
6 6 6 7 7 8 9 9 10 11 11 12 12 13 13 13 14 14 15 15 15 14 13 11 10 10 10 12 13 15 16 17 16 16 16 17 17 17 17 17 16 16 16 16 15 15 15 16 17 19 19 18 14 12 11 12 12 13 13 13 14 15 16 17 16 16 16 17 18
6 6 6 7 7 8 9 10 10 11 11 11 12 13 13 14 14 15 15 15 15 15 13 12 12 12 13 15 15 15 15 16 15 15 16 16 17 17 17 17 17 16 16 16 16 16 17 19 20 20 21 21 17 14 12 12 12 13 13 13 14 16 17 17 18 18 18 17 17
6 6 6 7 7 8 9 10 10 11 11 11 12 13 14 14 15 15 15 15 15 15 15 15 15 16 17 17 16 16 16 16 16 16 16 17 17 17 18 18 18 17 16 17 17 18 20 21 21 22 22 22 18 15 13 13 13 13 13 13 15 17 18 18 18 19 19 19 19
6 6 6 7 8 8 9 10 10 11 11 12 13 13 14 14 15 15 15 15 15 16 16 16 17 17 17 17 17 17 17 17 17 16 16 16 17 18 18 18 18 17 16 18 19 20 21 22 22 23 23 22 19 16 15 15 15 15 15 16 18 19 19 18 18 19 20 21 20
6 6 7 8 8 9 9 10 11 11 12 12 13 13 14 15 15 15 15 15 15 15 16 16 17 17 17 17 17 18 17 17 17 17 17 17 18 18 18 17 15 15 16 19 20 21 22 23 23 23 23 23 19 17 15 15 14 14 14 16 17 19 20 21 20 20 20 21 20
6 7 7 8 9 9 10 10 11 11 12 12 13 13 14 15 15 15 15 14 14 14 15 15 16 16 16 17 17 17 17 15 16 16 17 17 18 18 17 15 13 14 17 20 21 22 23 23 23 24 24 23 19 16 15 16 15 14 15 16 17 18 19 20 20 21 21 21 20
6 6 7 8 9 10 10 11 11 12 12 13 13 14 14 15 15 16 15 15 15 15 15 15 15 16 16 16 16 16 16 16 16 16 16 17 17 17 17 17 15 17 19 22 23 23 23 24 24 24 24 21 16 14 14 16 15 16 16 17 18 19 19 20 20 20 20 21 21
6 6 7 8 9 10 11 11 12 12 12 13 13 14 14 15 15 15 15 15 15 15 16 16 16 16 16 17 16 16 16 16 16 16 16 15 16 16 17 18 18 19 21 22 23 23 23 23 24 24 23 19 14 13 13 13 13 14 16 17 18 19 19 19 19 19 19 19 20
6 7 8 8 10 10 11 11 12 12 13 13 13 14 15 15 15 15 14 14 15 15 16 16 16 17 17 17 16 16 16 16 16 16 15 15 15 16 17 18 19 20 21 22 23 23 23 24 24 24 22 17 14 13 12 12 11 13 15 16 17 18 18 17 17 17 18 19 19
7 8 8 9 10 10 11 11 12 12 13 13 14 14 14 15 14 14 14 13 14 15 16 16 17 17 17 17 16 16 16 16 16 15 15 15 15 16 17 19 19 19 20 21 22 23 24 24 24 23 21 16 15 13 12 11 11 12 13 14 15 16 16 14 13 14 15 17 18
8 9 9 10 10 11 11 12 12 13 13 14 14 14 15 14 14 13 13 13 14 15 16 16 17 17 17 17 16 16 16 16 15 15 15 15 15 16 17 18 19 19 20 21 22 23 24 24 24 23 21 17 15 13 11 10 11 12 13 13 13 13 14 13 11 11 12 14 17
8 9 9 10 10 11 11 12 12 13 13 13 14 14 14 14 14 14 14 13 14 15 15 16 17 17 17 16 15 15 16 15 15 15 15 15 16 17 18 18 19 19 20 21 22 23 23 23 23 23 21 17 14 12 10 10 11 11 12 11 11 11 11 11 11 11 11 12 14
9 9 10 10 10 11 12 12 13 13 13 13 14 14 14 14 14 14 14 13 15 15 15 14 16 17 17 15 14 14 15 16 16 16 16 16 17 17 17 17 18 18 19 20 21 21 21 22 22 22 21 16 13 11 10 9 10 11 12 12 12 11 11 11 11 11 11 12 12
Wind_Direction
180 175 171 173 182 193 201 198 188 197 224 238 241 243 245 253 262 272 282 290 294 296 297 297 297 296 296 296 295 295 295 294 294 294 295 295 295 295 295 294 293 291 289 287 286 285 284 282 281 279 277 276 275 274 273 272 273 273 273 272 272 272 272 272 271 271 271 270 270
175 168 159 155 166 176 179 165 152 159 188 211 228 242 256 272 285 293 299 304 305 304 302 299 297 296 295 295 295 295 294 294 294 295 295 294 294 294 293 292 290 288 287 285 284 283 281 280 279 277 276 275 274 274 273 271 270 270 269 269 269 269 269 269 269 269 269 270 269
165 158 153 155 163 168 168 162 165 181 196 204 202 212 244 280 294 301 305 306 304 301 297 295 295 295 296 297 296 295 293 293 293 293 292 292 292 291 290 289 288 287 286 285 283 281 279 278 276 274 273 272 272 272 272 272 270 270 269 269 269 269 268 268 268 267 267 267 266
154 152 155 161 168 171 172 171 182 191 198 198 186 195 236 283 298 301 301 299 296 293 292 292 293 295 297 297 293 290 288 288 289 289 289 289 289 289 289 288 288 287 286 285 283 282 280 279 277 274 272 272 271 271 270 270 270 270 270 270 270 269 269 268 268 267 266 265 264
149 152 159 167 172 173 172 176 187 191 187 134 192 265 280 291 295 295 293 291 291 291 293 295 297 298 295 289 286 285 285 286 287 287 287 287 287 287 287 286 285 284 284 283 282 280 279 278 276 274 272 272 271 270 270 270 270 270 269 269 268 268 268 268 268 267 266 265 264
150 154 159 166 166 162 154 154 151 124 90 77 303 297 300 302 301 298 296 294 293 294 295 296 296 292 287 284 284 285 286 286 286 286 285 285 285 284 284 283 282 281 280 279 277 276 274 273 271 270 268 268 268 268 268 269 269 268 268 267 266 266 266 266 266 266 266 265 265
155 155 154 151 144 137 134 136 134 136 150 225 286 298 302 303 299 295 293 293 293 293 293 292 288 284 282 283 284 285 286 286 285 285 284 283 282 281 281 280 280 279 278 276 276 274 272 270 269 267 266 265 266 266 265 265 265 265 266 265 265 265 266 266 266 266 266 266 266
154 151 147 141 136 135 136 139 150 191 261 289 300 302 299 295 291 288 287 287 287 287 287 284 282 282 282 284 284 284 284 284 283 283 282 281 280 280 279 278 277 276 276 275 274 273 272 270 269 267 267 266 265 265 264 264 264 264 264 265 265 265 265 266 266 266 266 266 266
146 143 139 136 135 136 139 144 236 290 298 302 299 294 290 286 284 284 283 283 283 283 281 278 278 279 280 280 280 280 280 280 279 278 278 277 277 276 276 275 274 273 273 272 271 270 270 269 267 266 266 265 265 265 265 265 264 263 263 263 264 264 264 264 264 264 264 265 265
145 144 144 144 147 156 176 234 276 289 294 294 289 286 283 281 281 281 281 281 279 277 275 274 275 276 277 277 277 276 276 275 275 275 274 274 274 273 273 273 272 272 272 271 271 271 271 270 269 268 268 268 268 268 268 268 266 265 264 262 262 262 262 262 263 263 263 263 263
146 150 157 172 197 232 264 280 288 292 292 289 286 284 284 284 283 283 283 282 279 276 274 274 275 276 276 276 276 275 275 275 275 275 275 275 275 276 276 276 276 276 276 276 276 276 275 274 273 273 272 271 271 271 270 269 268 267 266 264 264 263 263 262 261 261 262 262 262
147 157 186 248 276 288 294 297 296 293 290 287 287 288 289 290 290 288 286 283 280 279 278 279 279 280 280 280 279 279 279 278 279 279 279 280 280 280 280 280 280 280 280 280 280 279 278 276 275 274 273 272 271 270 270 270 269 268 267 266 265 265 264 263 262 261 261 261 261
133 157 266 287 294 296 296 293 290 287 286 286 288 290 292 291 288 286 283 281 280 281 281 282 283 283 283 282 282 282 282 282 282 282 282 282 282 282 282 282 281 281 281 280 279 278 276 275 274 273 272 271 270 269 269 269 268 268 267 267 266 265 264 264 263 263 262 262 262
93 0 299 296 294 291 287 283 281 281 283 285 287 287 286 283 281 279 278 279 280 282 283 284 284 283 283 284 284 284 284 284 284 284 283 283 283 282 282 281 281 280 279 278 277 275 274 273 272 271 271 271 270 269 268 268 268 267 267 266 266 265 265 264 264 264 264 263 263
70 302 288 285 281 278 276 276 277 279 281 282 281 279 277 276 275 276 278 281 283 284 285 284 284 283 284 284 285 285 285 285 284 284 283 283 282 282 281 280 280 279 278 277 275 273 272 272 271 271 270 270 270 269 269 268 267 266 266 266 266 266 265 265 265 264 264 264 264
227 255 261 263 264 266 268 270 272 273 273 272 271 271 271 273 276 279 282 284 284 284 283 282 283 284 284 284 285 285 285 284 284 284 283 283 282 282 281 280 279 279 278 277 275 274 272 271 270 270 270 270 270 269 269 268 268 267 267 266 266 266 266 266 265 265 264 264 264
238 247 252 254 257 260 261 261 261 262 263 265 268 271 275 278 282 283 284 284 283 282 282 282 283 283 284 284 284 284 284 284 283 283 283 283 282 282 282 281 280 279 279 278 277 275 274 272 271 270 269 269 269 269 269 268 268 267 267 266 266 266 266 266 266 266 266 265 265
239 244 248 250 252 253 254 254 256 259 264 269 275 279 283 285 286 286 285 284 283 283 282 282 282 282 282 283 283 283 283 283 282 282 282 282 282 281 281 280 280 279 278 278 277 276 275 274 273 272 272 271 270 270 269 269 268 268 268 267 267 267 267 267 267 267 267 267 266
241 243 246 248 250 252 254 256 261 267 274 280 285 287 288 288 287 286 285 284 283 283 283 283 282 282 282 282 282 282 281 281 281 281 281 280 280 280 280 279 279 279 278 277 277 276 276 275 274 274 273 272 271 270 269 269 269 269 269 269 269 269 269 269 268 268 268 268 268
250 251 251 252 254 257 262 267 273 279 284 287 288 288 288 287 286 285 285 284 284 284 284 283 283 282 282 282 282 282 281 281 281 280 280 280 279 279 279 279 279 279 278 277 277 276 276 275 274 273 272 271 271 270 270 270 270 271 271 271 272 272 272 272 271 271 270 269 269
258 257 257 257 260 266 272 278 282 285 286 287 287 286 286 286 285 284 284 284 284 284 283 282 282 282 283 283 284 284 283 282 282 281 281 280 279 279 279 279 279 279 278 277 276 275 275 274 274 273 273 272 272 273 273 274 275 276 276 276 276 276 276 276 275 274 273 272 270
262 261 261 263 268 274 279 282 283 283 284 284 284 284 284 284 283 283 283 283 283 283 282 282 283 284 285 285 286 286 285 284 282 281 281 280 279 279 278 278 277 277 276 275 274 274 273 273 273 273 273 273 274 275 276 278 280 280 281 280 279 278 278 277 275 274 273 272 270
263 263 264 267 272 275 278 279 279 280 281 282 283 283 283 283 283 283 284 284 284 284 284 285 285 286 286 286 286 286 285 283 282 280 279 278 278 277 276 276 275 275 274 274 274 274 274 274 274 275 275 277 278 280 281 282 283 283 282 281 279 278 276 274 273 271 270 269 267
261 260 261 265 269 272 274 276 278 280 282 283 285 286 286 286 286 286 286 286 286 286 286 286 286 286 286 286 285 284 283 282 281 280 279 278 277 277 276 276 275 275 275 275 275 276 277 279 280 281 281 282 283 284 284 284 283 282 280 279 277 275 273 271 270 268 267 266 265
253 253 255 260 265 270 273 276 279 282 284 287 288 289 289 289 289 289 289 289 289 288 287 286 286 286 285 285 284 283 281 280 280 279 278 278 277 277 276 276 276 276 276 276 276 277 278 280 283 285 286 286 285 285 284 282 280 278 276 274 273 271 270 269 267 266 265 264 263
247 249 254 260 265 270 274 278 282 285 287 289 290 291 291 292 293 294 294 293 292 291 289 288 287 285 283 283 282 280 279 278 277 277 277 278 278 278 278 277 277 277 277 276 277 278 279 282 283 284 284 285 284 282 280 278 275 272 270 269 268 267 267 266 265 263 262 262 261
245 250 257 263 269 274 278 282 285 287 289 290 292 294 295 298 299 299 298 296 294 293 290 288 285 283 280 279 278 277 276 276 276 277 278 279 280 280 280 279 278 278 277 278 279 281 284 287 287 286 285 283 282 280 278 276 274 271 269 267 266 265 264 264 264 263 262 261 260
245 253 260 267 272 277 282 286 288 289 291 294 296 298 300 301 301 300 298 296 295 293 290 287 284 281 279 277 277 278 279 279 280 281 281 281 281 281 281 280 280 279 279 281 284 288 292 294 293 291 289 286 283 280 278 275 274 272 269 267 265 264 263 263 263 263 263 262 261
246 253 261 267 274 280 285 288 289 292 295 298 300 301 302 301 300 299 297 296 295 293 291 289 287 284 283 283 284 284 285 284 284 283 283 282 282 281 281 281 281 281 283 286 292 297 299 298 295 292 289 286 282 279 275 273 271 270 268 266 265 264 264 264 263 263 263 263 262
249 256 263 270 277 282 286 289 292 296 299 301 301 302 301 300 299 299 298 297 295 294 293 292 291 289 287 287 287 286 286 285 284 284 284 284 284 284 284 284 285 287 291 296 300 302 301 298 294 291 287 284 280 276 273 271 270 269 268 267 266 266 266 265 265 264 264 263 262
255 261 267 274 280 284 288 292 295 298 300 301 301 301 301 300 299 299 298 297 296 295 294 293 291 289 288 288 287 287 287 288 288 289 289 289 288 288 288 289 290 292 296 301 302 300 298 294 291 288 285 282 279 275 271 269 268 268 267 266 266 266 266 266 265 264 263 262 262
261 269 276 281 285 289 292 296 299 300 301 300 301 300 300 299 299 299 298 298 297 295 294 292 291 290 290 290 290 290 291 292 292 292 292 292 292 292 292 293 294 296 298 300 299 297 293 290 287 285 283 280 277 274 271 269 268 267 267 266 266 266 265 265 264 264 263 262 261
272 279 284 287 291 294 297 299 300 301 301 300 300 300 299 298 298 298 297 296 294 293 292 292 292 292 292 293 293 293 293 293 293 293 293 292 293 294 295 296 297 297 297 297 295 292 289 287 285 283 282 280 278 275 272 270 269 267 266 265 265 264 264 263 263 263 262 261 260
274 281 286 291 295 298 299 300 300 300 301 300 300 299 299 298 297 296 295 294 293 292 292 293 293 294 294 294 294 295 295 294 294 294 294 294 295 297 298 298 297 295 294 292 290 288 287 286 285 284 283 282 280 277 274 272 270 268 266 266 265 264 263 262 262 261 261 260 259
276 286 292 297 298 298 299 299 300 300 300 300 299 299 297 296 295 294 294 293 293 293 294 294 294 294 294 294 294 295 295 294 294 295 295 297 299 299 299 296 293 292 291 290 288 288 287 286 286 285 285 284 281 278 275 273 271 269 267 267 266 265 264 263 262 261 260 259 258
294 298 299 298 296 296 297 299 300 300 300 299 298 297 295 294 293 293 294 295 295 295 295 296 296 296 295 296 296 295 295 296 296 297 298 300 301 300 298 295 293 291 290 289 289 288 288 287 287 286 285 284 281 277 274 272 271 270 269 268 268 267 267 266 264 263 261 260 259
303 302 300 296 295 296 298 300 300 299 298 297 296 295 294 294 294 295 296 297 298 297 297 297 297 297 297 298 298 297 298 298 299 300 302 303 302 300 296 294 292 291 290 290 289 289 288 287 286 285 284 283 281 278 276 274 272 271 270 270 270 269 269 268 267 265 264 263 261
306 304 301 299 299 300 300 301 299 298 297 296 295 295 296 296 297 298 299 300 299 299 298 298 298 298 298 299 299 299 299 300 301 302 303 303 300 297 294 292 291 290 290 289 289 288 286 285 284 284 283 282 281 280 278 275 273 272 271 271 272 272 273 272 271 269 267 266 264
307 305 304 302 302 301 301 299 298 297 296 296 296 297 298 298 298 299 300 300 299 298 298 298 299 299 300 301 300 300 301 301 302 303 303 301 298 294 292 290 289 289 288 288 287 286 284 283 283 283 283 283 282 281 279 276 274 273 273 274 276 278 280 280 280 277 275 273 270
307 306 305 304 303 301 299 298 297 297 297 297 298 298 299 299 299 300 300 298 298 298 298 298 299 300 301 302 302 302 303 304 304 304 301 298 294 291 289 287 287 287 287 286 285 284 283 283 284 285 286 285 284 282 280 277 277 278 279 282 286 289 290 290 287 284 281 279 276
307 306 305 304 302 301 299 298 298 298 298 298 299 299 299 300 299 299 299 299 299 300 300 299 300 301 302 303 303 304 305 305 304 302 299 295 292 290 288 286 286 286 286 286 285 285 285 286 287 288 289 287 286 283 281 280 283 287 291 295 297 297 296 294 290 287 283 282 281